Content
SEND FEEDBACK

Daily
Averages
Monthly
Summary
Spain

PALMA, SPAIN


Home > Europe > Spain
Elevation: 26 feet     Latitude: 39 33N     Longitude: 002 44E

WEATHER
 
SELECT A DAY
Number of Records: 297,848;   Date Range: 7/1/96 - 8/30/14
 
SHARE

PRINT THIS DATA

[ ← Previous Day ]
WEATHER ALMANAC - MAY 19, 2013
[ Next Day → ]
[ °C ]   °F
Weather ElementAverageHighLow
Temperature63.7 °F69 °F (2:00 pm)59 °F (5:00 am)
Dewpoint48.3 °F51.8 °F (11:00 am)43 °F (8:00 pm)
Humidity56.7 %68 % (7:30 am)33 % (8:00 pm)
Barometer29.99 in30.06 in (10:00 pm)29.89 in (12:30 am)
Wind Speed14.1 mph23 mph (2:30 am)
Weather ElementAverage
Visibility6.7 mi
Wind DirectionWSW (247.1 °)

Weather ElementTotal
Precipitation---
Heating Degree Days1 (Base 65)
Growing Degree Days14 (Base 50)
Averaged from 51 records on May 19, 2013
WEATHER CONDITIONS BREAKOUT
WIND DIRECTION BREAKOUT
WEATHER BY HOUR - MAY 19, 2013
[ °C ]   °F
Local TimeTemperatureDewpointHumidityBarometerVisibilityWind DirectionWind SpeedGust SpeedPrecipitationEventsConditions
12:30 AM62.6 °F48.2 °F59 %29.89 in6.2 miWSW (250°)18.4 mphPartly Cloudy
1:00 AM62.6 °F48.2 °F59 %29.89 in6.2 miWSW (250°)17.3 mphPartly Cloudy
1:30 AM62.6 °F48.2 °F59 %29.89 in6.2 miWSW (240°)20.7 mphPartly Cloudy
2:00 AM62.0 °F47.0 °F48 %29.91 in9.0 miWSW (250°)17.3 mphScattered Clouds
2:00 AM62.6 °F50.0 °F63 %29.89 in6.2 miWSW (240°)20.7 mphPartly Cloudy
2:30 AM62.6 °F48.2 °F59 %29.89 in6.2 miWSW (250°)23.0 mphPartly Cloudy
3:00 AM60.8 °F48.2 °F63 %29.89 in6.2 miWest (260°)21.9 mphPartly Cloudy
3:30 AM60.8 °F48.2 °F63 %29.89 in6.2 miWSW (250°)19.6 mphPartly Cloudy
4:00 AM60.8 °F46.4 °F59 %29.89 in6.2 miWest (260°)17.3 mphPartly Cloudy
4:30 AM60.8 °F48.2 °F63 %29.89 in6.2 miWest (270°)17.3 mphPartly Cloudy
5:00 AM59.0 °F46.4 °F63 %29.92 in6.2 miWest (270°)13.8 mphPartly Cloudy
5:30 AM59.0 °F48.2 °F67 %29.92 in6.2 miWest (270°)10.4 mphPartly Cloudy
6:00 AM59.0 °F48.2 °F67 %29.92 in6.2 miWest (270°)10.4 mphPartly Cloudy
6:30 AM59.0 °F48.2 °F67 %29.92 in6.2 miWest (260°)11.5 mphPartly Cloudy
7:00 AM59.0 °F48.2 °F67 %29.95 in6.2 miWSW (250°)10.4 mphPartly Cloudy
7:30 AM60.8 °F50.0 °F68 %29.95 in6.2 miWest (270°)9.2 mphPartly Cloudy
8:00 AM62.0 °F47.0 °F48 %29.97 in11.0 miWest (260°)8.1 mphScattered Clouds
8:00 AM62.6 °F48.2 °F59 %29.95 in6.2 miWest (270°)10.4 mphPartly Cloudy
8:30 AM62.6 °F50.0 °F63 %29.98 in6.2 miWest (260°)10.4 mphPartly Cloudy
9:00 AM64.4 °F48.2 °F56 %29.98 in6.2 miWest (260°)10.4 mphPartly Cloudy
9:30 AM64.4 °F50.0 °F59 %29.98 in6.2 miWSW (250°)11.5 mphPartly Cloudy
10:00 AM66.2 °F48.2 °F52 %29.98 in6.2 miWSW (250°)13.8 mphPartly Cloudy
10:30 AM66.2 °F50.0 °F56 %30.01 in6.2 miWSW (250°)16.1 mphPartly Cloudy
11:00 AM66.2 °F51.8 °F60 %30.01 in6.2 miWSW (250°)17.3 mphPartly Cloudy
11:30 AM66.2 °F50.0 °F56 %30.01 in6.2 miWSW (250°)19.6 mphPartly Cloudy
12:00 PM66.2 °F48.2 °F52 %30.01 in6.2 miWSW (250°)19.6 mphPartly Cloudy
12:30 PM68.0 °F51.8 °F56 %30.01 in6.2 miWSW (250°)18.4 mphPartly Cloudy
1:00 PM66.2 °F50.0 °F56 %30.04 in6.2 miWSW (250°)17.3 mphPartly Cloudy
1:30 PM68.0 °F51.8 °F56 %30.04 in6.2 miWSW (240°)18.4 mphPartly Cloudy
2:00 PM69.0 °F49.0 °F38 %30.03 in16.0 miWSW (240°)20.7 mphScattered Clouds
2:00 PM68.0 °F50.0 °F52 %30.04 in6.2 miWSW (240°)18.4 mphPartly Cloudy
2:30 PM68.0 °F50.0 °F52 %30.04 in6.2 miWSW (240°)19.6 mphPartly Cloudy
3:00 PM66.2 °F50.0 °F56 %30.04 in6.2 miWSW (240°)18.4 mphPartly Cloudy
3:30 PM66.2 °F46.4 °F49 %30.04 in6.2 miSW (230°)16.1 mphPartly Cloudy
4:00 PM66.2 °F48.2 °F52 %30.04 in6.2 miWSW (250°)17.3 mphPartly Cloudy
4:30 PM66.2 °F48.2 °F52 %30.04 in6.2 miWSW (240°)17.3 mphPartly Cloudy
5:00 PM66.2 °F50.0 °F56 %30.04 in6.2 miWSW (240°)15.0 mphPartly Cloudy
5:30 PM66.2 °F48.2 °F52 %30.04 in6.2 miWSW (240°)15.0 mphPartly Cloudy
6:00 PM66.2 °F48.2 °F52 %30.04 in6.2 miWSW (240°)12.7 mphPartly Cloudy
6:30 PM66.2 °F48.2 °F52 %30.04 in6.2 miWSW (240°)10.4 mphPartly Cloudy
7:00 PM64.4 °F46.4 °F52 %30.04 in6.2 miWSW (240°)12.7 mphPartly Cloudy
7:30 PM64.4 °F44.6 °F49 %30.04 in6.2 miSW (230°)10.4 mphPartly Cloudy
8:00 PM65.0 °F43.0 °F33 %30.05 in12.0 miWSW (250°)10.4 mphScattered Clouds
8:00 PM64.4 °F44.6 °F49 %30.04 in6.2 miWSW (240°)10.4 mphPartly Cloudy
8:30 PM62.6 °F46.4 °F55 %30.04 in6.2 miWSW (240°)9.2 mphPartly Cloudy
9:00 PM62.6 °F48.2 °F59 %30.04 in6.2 miSW (230°)5.8 mphPartly Cloudy
9:30 PM62.6 °F48.2 °F59 %30.04 in6.2 miSSW (210°)4.6 mphPartly Cloudy
10:00 PM62.6 °F48.2 °F59 %30.06 in6.2 miSSW (200°)4.6 mphPartly Cloudy
10:30 PM62.6 °F48.2 °F59 %30.06 in6.2 miSW (230°)8.1 mphPartly Cloudy
11:00 PM60.8 °F48.2 °F63 %30.06 in6.2 miSW (230°)5.8 mphPartly Cloudy
11:30 PM59.0 °F48.2 °F67 %30.06 in6.2 miWest (260°)5.8 mphPartly Cloudy
Hourly data recorded from LEPA, located miles away from Palma, Spain







STORIES FROM OUR PARTNERS